Flag for Canada Weather past 2 weeks in Calgary, Alberta, Canada

Now
73 °F

Partly sunny.


Feels Like: 77 °F
Forecast: 55 / 69 °F
Wind: 2 mph from East

Location: Calgary International

Current Time: Jul 4, 2015 at 3:26:55 PM

Latest Report: Jul 4, 2015 at 3:00 PM


Visibility: 30 mi

Pressure: 29.90 "Hg (26.45 "Hg at 1063m altitude)

Humidity: 41%

Dew point: 48 °F

Location of CalgaryLocation

Historic Weather in Calgary — Graph

°F

Calgary temperature yesterday

Maximum temperature yesterday: 84 °F (at 2:00 PM)
Minimum temperature yesterday: 59 °F (at 6:00 AM)
Average temperature yesterday: 74 °F

Past Weeks' High & Low Weather Summary

 TemperatureHumidityPressure
High86 °F (Jun 27, 3:00 PM)94% (Jun 30, 3:00 AM)30.19 "Hg (Jun 30, 3:00 AM)
Low41 °F (Jun 22, 5:00 AM)23% (Jun 19, 6:00 PM)29.77 "Hg (Jul 3, 9:00 PM)
Average66 °F57%30.02 "Hg
* Reported Jun 19 2:00 PM — Jul 4 2:00 PM, Calgary, Weather by CustomWeather, © 2015

Note: Actual official high and low records may vary slightly from our data, if they occured in-between our weather recording intervals... More about our weather records

Advertising

Calgary weather history for previous 24 hours

 ConditionsComfort  
Time TempWeatherWind HumidityBarometerVisibility
2:00 PM
Sat, Jul 4
73 °FBroken clouds.12 mph38%29.90 "Hg30 mi
1:00 PM72 °FPartly sunny.7 mph41%29.91 "Hg30 mi
12:00 PM72 °FBroken clouds.9 mph41%29.91 "Hg30 mi
11:00 AM68 °FBroken clouds.5 mph46%29.92 "Hg30 mi
10:00 AM66 °FPartly sunny.6 mph49%29.93 "Hg30 mi
9:00 AM64 °FPartly sunny.No wind56%29.94 "Hg30 mi
8:00 AM63 °FPartly sunny.No wind56%29.92 "Hg40 mi
7:00 AM61 °FPartly sunny.3 mph59%29.92 "Hg40 mi
6:00 AM61 °FPassing clouds.No wind59%29.92 "Hg30 mi
5:00 AM61 °FOvercast.6 mph59%29.91 "Hg15 mi
4:00 AM61 °FPassing clouds.9 mph63%29.91 "Hg15 mi
3:00 AM59 °FPassing clouds.10 mph68%29.90 "Hg15 mi
2:00 AM61 °FPassing clouds.10 mph68%29.88 "Hg15 mi
1:00 AM63 °FPassing clouds.9 mph64%29.85 "Hg15 mi
12:00 AM64 °FPassing clouds.14 mph64%29.83 "Hg15 mi
11:00 PM
Fri, Jul 3
70 °FPassing clouds.9 mph64%29.80 "Hg15 mi
10:00 PM72 °FThunderstorms. Broken clouds.7 mph61%29.78 "Hg20 mi
9:00 PM77 °FBroken clouds.7 mph47%29.77 "Hg30 mi
8:00 PM81 °FBroken clouds.9 mph37%29.78 "Hg30 mi
7:00 PM82 °FPartly sunny.6 mph35%29.79 "Hg40 mi
6:00 PM82 °FPartly sunny.10 mph32%29.80 "Hg40 mi
5:00 PM84 °FScattered clouds.9 mph31%29.80 "Hg40 mi
4:00 PM84 °FScattered clouds.13 mph29%29.80 "Hg40 mi
3:00 PM84 °FScattered clouds.5 mph29%29.83 "Hg40 mi
Weather by CustomWeather, © 2015

See weather overviewHow to use our weather pages